Domov               UVHVVR             MKGP            O straneh              
ZDRAVSTVENO VARSTVO RASTLIN
  MREŽA AGROMET. POSTAJ
 ► PROGNOSTIČNA OBVESTILA
AGROMETEOROLOŠKI PODATKI -
ARSO
OBVLADOVANJE TVEGANJ ZARADI
NEUGODNIH VREMENSKIH RAZMER
  ► NARAVNE NESREČE
  ► SUŠA/MOČA
  ► NAMAKANJE
  ► ŽLED (gozdarstvo)
KARTOGRAFSKI PRIKAZI
SPLETNE POVEZAVE
PROJEKTI IN PUBLIKACIJE

AGROMETEOROLOŠKA MREŽA: VREMENSKE POSTAJE IN FENOLOŠKA OPAZOVANJA

Pregled podatkov za lokacijo Slovenske Konjice, meteorološka postaja 37885

Pregled senzorjev na lokaciji

ID Ime Zadnja
vrednost
Datum
zadnje
spremembe
Tip
senzorja
4060 Temperatura 2 m (°C) 6,72 °C 11.12.2017 10:00 50YA
4061 Relativna vlaga 2 m (% RH) 86,06 % RH 11.12.2017 10:00 50YA
4062 Padavine (mm) 0 mm 11.12.2017 10:00 Rain-O-Matic
4063 Omočenost lista (U) 0 U 11.12.2017 10:00 A730WET

Pregled podatkov zadnjih 24 ur

Zap.
št.
Datum in čas Slovenske Konjice
Omočenost
lista
Padavine Relativna
vlaga
2
m
Temperatura
2
m
0 11.12.2017 10:00 0 0 86,06 6,72
1 11.12.2017 09:30 0 0 89,87 5,42
2 11.12.2017 09:00 0 0 88,16 5,84
3 11.12.2017 08:30 0 0 87,62 6,25
4 11.12.2017 08:00 0 0 89,89 5,59
5 11.12.2017 07:30 0 0 89,08 5,62
6 11.12.2017 07:00 1 0 87,42 6,01
7 11.12.2017 06:30 0 0 88,6 5,64
8 11.12.2017 06:00 1 0 87,06 6,13
9 11.12.2017 05:30 3 0 87,91 5,89
10 11.12.2017 05:00 5 0,2 89,79 5,47
11 11.12.2017 04:30 3 0 87,18 5,91
12 11.12.2017 04:00 6 0,2 89,99 5,2
13 11.12.2017 03:30 5 0 90,48 4,52
14 11.12.2017 03:00 3 0 88,4 4,74
15 11.12.2017 02:30 3 0 88,52 4,47
16 11.12.2017 02:00 3 0,2 87,18 4,32
17 11.12.2017 01:30 3 0,2 87,84 3,98
18 11.12.2017 01:00 3 0,2 86,13 3,91
19 11.12.2017 00:30 3 0,4 88,42 3,3
20 11.12.2017 00:00 4 0,2 89,62 2,71
21 10.12.2017 23:30 7 0,4 86,35 3,13
22 10.12.2017 23:00 10 0,2 84,27 3,25
23 10.12.2017 22:30 10 0,4 83,66 3,1
24 10.12.2017 22:00 10 0,6 81,27 3,22
25 10.12.2017 21:30 2 1,6 78,66 3,47
26 10.12.2017 21:00 2 77,85 3,37
27 10.12.2017 20:30 1,4 78,53 3
28 10.12.2017 20:00 1,2 77,58 2,88
29 10.12.2017 19:30 1 77,44 2,64
30 10.12.2017 19:00 0,6 77,17 2,39
31 10.12.2017 18:30 0,4 78,66 2,03
32 10.12.2017 18:00 0 0 80,68 1,61
33 10.12.2017 17:30 0,2 82,86 1,15
34 10.12.2017 17:00 0 0 83,69 1,07
35 10.12.2017 16:30 0 0 81,68 1,07
36 10.12.2017 16:00 0,2 77,88 1,17
37 10.12.2017 15:30 0,2 72,97 1,49
38 10.12.2017 15:00 0 0 70,6 1,71
39 10.12.2017 14:30 0,2 70,67 1,73
40 10.12.2017 14:00 0,2 71,45 1,61
41 10.12.2017 13:30 0,2 72,11 1,64
42 10.12.2017 13:00 0,2 72,16 1,56
43 10.12.2017 12:30 0 0 71,89 1,03
44 10.12.2017 12:00 0,2 67,64 2,03
45 10.12.2017 11:30 0 0 67,89 1,34
46 10.12.2017 11:00 0 0 73,48 -0,17
© 2011 Ministrstvo za kmetijstvo, gozdarstvo in prehrano. Vse pravice pridržane.